Temperature
3 4 4 4 4 5 5 5 5 5 5 5 5 5 5 5 4 4 3 3 3 3 3 3 3 3 3 4 4 4 4 4 4 4 4 4 4 4 4 5 5 5 5 5
3 4 4 4 4 4 4 5 5 5 4 5 5 5 4 4 3 3 3 2 2 2 2 2 2 3 3 3 3 3 3 3 3 3 3 3 4 4 4 4 4 5 5 5
2 4 4 2 3 3 3 3 4 4 4 4 3 3 3 3 3 2 2 2 2 2 2 2 2 2 3 3 3 3 3 3 3 3 3 3 3 3 3 4 4 4 4 4
2 2 2 3 4 4 3 3 3 3 3 3 3 3 2 2 2 1 1 1 1 1 1 1 2 2 2 2 2 2 2 2 2 2 3 3 3 3 3 3 3 4 4 4
1 1 2 3 3 3 2 2 2 2 2 2 2 2 2 1 1 1 1 1 1 1 1 1 1 2 2 2 2 2 2 2 2 2 2 2 2 2 2 3 3 3 3 3
1 1 2 2 2 2 2 1 1 2 1 1 1 1 1 0 0 0 0 0 0 1 1 1 1 1 1 1 1 1 1 1 2 2 2 2 2 2 2 2 2 2 3 3
1 1 1 1 1 2 1 0 1 1 1 0 -0 -0 0 -0 -0 -0 -0 -0 -0 0 0 0 0 1 1 1 1 1 1 1 1 1 1 1 1 1 2 2 2 2 2 2
0 0 0 1 1 0 -0 0 0 0 -0 -1 -1 -1 -1 -1 -1 -1 -1 -1 -1 -1 -1 -0 -0 -0 -0 0 0 0 0 1 1 1 1 1 1 1 1 1 1 1 1 1
-0 -0 0 0 0 -0 0 -0 -0 -1 -1 -1 -1 -2 -2 -2 -2 -1 -1 -1 -1 -1 -1 -1 -1 -1 -1 -0 -0 -0 -0 0 0 0 0 0 0 1 1 1 1 1 1 1
-0 -0 1 0 -0 -0 -1 -1 -1 -1 -2 -2 -2 -2 -2 -2 -2 -2 -2 -2 -2 -2 -1 -1 -1 -1 -1 -1 -1 -1 -1 -1 -1 -1 -0 -0 -0 0 0 0 0 0 0 0
-1 -1 0 -0 -1 -1 -1 -1 -2 -2 -2 -2 -2 -2 -3 -3 -3 -3 -3 -2 -2 -2 -2 -2 -2 -1 -1 -1 -1 -1 -1 -1 -1 -1 -1 -1 -1 -0 -0 -0 -0 -0 -0 -0
-1 -1 -1 -1 -1 -2 -2 -2 -2 -3 -3 -3 -3 -3 -3 -3 -3 -3 -3 -3 -3 -3 -2 -2 -2 -2 -2 -2 -2 -2 -2 -2 -2 -2 -2 -1 -1 -1 -1 -1 -1 -1 -1 -1
-1 -1 -1 -1 -2 -2 -3 -3 -3 -3 -3 -3 -3 -4 -4 -4 -4 -4 -4 -3 -3 -3 -3 -3 -2 -2 -2 -2 -2 -2 -2 -2 -2 -2 -2 -2 -2 -2 -1 -1 -1 -1 -1 -1
-2 -2 -2 -3 -3 -3 -3 -4 -4 -4 -4 -4 -4 -4 -4 -4 -4 -4 -4 -4 -4 -3 -3 -3 -3 -3 -3 -3 -3 -3 -3 -3 -3 -3 -3 -2 -2 -2 -2 -2 -2 -1 -1 -1
-3 -3 -3 -3 -4 -4 -4 -4 -4 -4 -4 -5 -5 -5 -5 -5 -5 -4 -4 -4 -4 -4 -4 -3 -3 -3 -3 -3 -3 -3 -3 -3 -3 -3 -3 -3 -2 -2 -2 -2 -2 -2 -2 -2
-3 -4 -4 -4 -4 -4 -5 -5 -5 -5 -5 -5 -5 -5 -5 -5 -5 -5 -5 -5 -4 -4 -4 -4 -4 -4 -4 -4 -4 -4 -3 -3 -3 -3 -3 -3 -3 -3 -3 -3 -3 -3 -2 -2
-4 -4 -5 -5 -5 -5 -5 -5 -5 -5 -5 -6 -6 -6 -6 -6 -6 -5 -5 -5 -5 -4 -4 -4 -4 -4 -4 -4 -4 -4 -4 -4 -4 -4 -4 -4 -3 -3 -3 -3 -3 -3 -3 -3
-4 -4 -5 -5 -5 -5 -5 -5 -6 -6 -6 -6 -6 -6 -6 -6 -6 -6 -6 -5 -5 -5 -5 -5 -5 -5 -4 -4 -4 -4 -4 -4 -4 -4 -4 -4 -4 -4 -3 -3 -3 -3 -3 -3
-4 -5 -5 -5 -5 -6 -6 -6 -6 -6 -6 -6 -6 -6 -7 -7 -7 -6 -6 -6 -6 -5 -5 -5 -5 -5 -5 -5 -5 -5 -5 -5 -5 -5 -5 -5 -4 -4 -4 -4 -4 -4 -4 -3
-5 -5 -5 -5 -6 -6 -6 -6 -6 -6 -6 -7 -7 -7 -7 -7 -7 -7 -7 -6 -6 -6 -6 -6 -5 -5 -5 -5 -5 -5 -5 -5 -5 -5 -5 -5 -5 -5 -4 -4 -4 -4 -4 -4
-5 -5 -6 -6 -6 -6 -7 -7 -7 -7 -7 -7 -7 -7 -7 -7 -7 -7 -7 -7 -6 -6 -6 -6 -6 -6 -6 -6 -6 -6 -6 -6 -6 -6 -6 -5 -5 -5 -5 -5 -5 -5 -4 -4
-6 -6 -6 -6 -7 -7 -7 -7 -7 -7 -8 -8 -8 -8 -8 -8 -8 -8 -7 -7 -7 -7 -7 -7 -6 -6 -6 -7 -7 -6 -6 -6 -6 -6 -6 -6 -6 -6 -5 -5 -5 -5 -5 -5
-6 -6 -7 -7 -7 -7 -7 -8 -8 -8 -8 -8 -8 -8 -9 -9 -8 -8 -8 -8 -8 -8 -7 -7 -7 -7 -7 -7 -7 -7 -7 -7 -7 -7 -6 -6 -6 -6 -6 -6 -5 -5 -5 -5
-6 -7 -7 -7 -8 -8 -8 -8 -8 -9 -9 -9 -9 -9 -9 -9 -9 -9 -9 -8 -8 -8 -8 -8 -7 -7 -7 -7 -7 -7 -7 -7 -7 -7 -7 -7 -6 -6 -6 -6 -6 -6 -5 -5
-7 -7 -7 -8 -8 -8 -9 -9 -9 -9 -9 -9 -9 -9 -9 -9 -9 -9 -9 -9 -9 -8 -8 -8 -8 -8 -8 -8 -8 -8 -7 -7 -7 -7 -7 -7 -7 -6 -6 -6 -6 -6 -6 -5
-7 -8 -8 -8 -9 -9 -9 -9 -9 -9 -9 -9 -9 -9 -9 -9 -9 -9 -9 -9 -9 -9 -9 -8 -8 -8 -8 -8 -8 -8 -8 -8 -8 -8 -7 -7 -7 -7 -7 -6 -6 -6 -6 -6
-8 -8 -8 -9 -9 -9 -9 -9 -9 -9 -9 -9 -9 -9 -10 -10 -10 -10 -9 -9 -9 -9 -9 -9 -9 -9 -8 -8 -8 -8 -8 -8 -8 -8 -8 -8 -7 -7 -7 -7 -7 -6 -6 -6
Wind_Speed
5 5 3 3 4 4 5 4 3 2 2 2 2 3 3 4 5 4 4 4 3 3 3 3 3 3 3 3 3 2 1 1 1 2 2 2 2 2 2 2 1 1 0 0
3 3 2 4 5 6 6 5 5 4 5 2 3 3 4 4 3 3 3 3 3 4 4 3 3 3 3 2 2 2 2 1 1 1 2 2 2 2 2 2 2 1 1 0
2 3 2 4 5 5 4 2 4 5 3 2 3 4 3 3 3 3 3 3 3 3 3 3 3 2 2 2 2 2 2 2 2 2 1 2 2 2 1 2 2 1 1 1
2 2 3 3 1 1 2 1 2 1 2 2 2 3 3 4 3 4 4 3 3 2 3 3 3 3 2 2 2 2 2 2 2 2 2 2 2 2 2 1 1 1 1 1
1 2 4 2 1 1 0 1 2 2 2 4 3 1 2 4 4 3 4 3 3 3 2 2 2 2 2 2 2 2 2 2 2 2 2 2 2 2 2 2 2 1 1 1
2 2 3 1 2 3 1 1 3 2 2 3 3 1 2 5 5 5 4 4 3 3 2 2 3 2 2 1 1 2 3 3 3 2 2 2 2 2 2 2 2 1 1 1
3 3 3 1 2 1 1 2 3 3 2 2 2 2 3 4 5 5 4 4 4 3 2 2 2 2 2 1 2 3 3 3 3 2 2 2 1 1 2 2 1 1 1 1
2 3 4 1 2 1 1 1 2 3 3 2 3 4 3 4 4 4 4 4 4 3 3 3 2 2 2 2 2 3 3 3 3 3 2 2 1 1 1 1 1 1 1 1
3 4 1 2 2 0 1 2 3 3 3 3 3 3 4 3 4 4 4 4 4 3 3 3 3 2 2 3 2 2 2 3 3 3 3 2 1 1 1 1 1 1 1 1
2 2 1 1 1 1 2 2 3 3 3 2 3 3 4 3 4 4 4 4 4 3 3 3 3 3 2 3 2 2 2 2 2 2 2 2 2 1 1 1 1 1 1 1
3 2 2 0 1 2 2 2 3 3 3 2 2 3 3 3 3 4 4 4 3 3 3 4 4 3 3 3 2 2 2 2 2 2 2 2 1 1 1 1 1 1 1 2
3 2 2 1 2 3 3 3 3 3 3 3 2 3 3 3 3 3 4 3 3 3 3 4 4 3 3 3 2 2 2 2 2 2 2 2 1 2 3 2 3 3 3 2
2 2 1 1 2 3 2 2 3 3 3 3 2 3 3 3 3 3 3 3 3 4 4 4 4 4 3 3 2 2 2 2 2 2 2 2 2 1 1 3 4 4 4 3
1 1 1 1 1 2 2 2 2 2 2 2 2 2 2 3 3 3 3 3 3 4 4 4 4 4 4 3 2 2 2 2 2 2 2 2 2 1 1 1 2 2 3 3
0 0 1 1 1 1 1 2 2 2 2 2 2 2 3 3 4 4 4 4 4 4 4 3 4 4 4 3 3 2 2 2 2 2 2 1 1 1 1 1 1 2 2 3
1 1 1 1 1 1 1 2 2 3 3 3 3 3 3 3 4 4 4 3 3 4 4 4 4 4 4 3 2 2 2 3 3 2 1 1 1 1 1 1 1 1 2 2
2 2 2 2 2 2 2 2 3 3 3 3 3 3 3 4 4 4 4 3 4 4 4 4 4 4 4 3 2 2 2 2 3 2 1 1 1 1 1 1 1 2 2 2
3 2 2 2 2 3 3 3 3 3 3 3 3 3 3 4 4 5 4 4 4 5 4 4 4 4 4 3 2 2 2 2 2 2 1 1 2 1 1 2 2 2 2 2
2 2 1 1 1 2 3 3 3 3 3 3 3 4 4 4 4 4 4 4 4 5 4 3 6 4 3 3 3 2 2 2 2 2 2 2 2 1 1 2 1 1 1 1
2 1 1 1 1 2 3 3 3 3 3 2 3 3 4 4 4 4 4 4 4 4 4 5 4 3 3 3 4 2 2 2 2 2 2 2 2 2 2 2 1 1 1 1
2 2 2 2 2 3 3 3 3 4 3 3 3 4 4 4 4 4 4 4 4 3 4 6 4 3 3 3 3 2 2 2 2 2 2 2 2 2 2 1 1 1 1 1
3 3 3 2 2 3 2 2 3 4 4 4 4 4 4 5 4 4 4 4 4 5 4 3 3 4 4 4 2 2 2 2 2 2 2 2 2 2 2 2 2 2 1 1
3 3 3 3 3 3 3 3 3 4 4 4 4 4 4 4 4 4 5 3 3 5 4 3 5 6 6 3 2 2 2 2 2 2 2 2 2 2 2 2 2 2 2 2
3 2 2 2 2 3 4 4 3 3 4 4 4 4 4 4 4 3 3 5 6 7 4 5 7 7 6 3 2 2 2 2 2 2 2 2 2 2 2 2 2 2 2 2
3 2 2 3 3 4 4 3 3 3 3 3 3 3 3 3 4 3 3 3 5 6 4 5 6 6 4 2 2 2 2 2 2 2 2 2 2 2 2 2 2 2 2 2
3 3 4 4 4 3 2 2 2 3 3 3 3 2 2 2 2 3 2 3 3 5 4 3 3 4 3 2 2 2 2 3 3 3 2 2 2 2 2 2 2 2 2 2
3 3 2 3 3 3 3 3 3 3 3 3 3 3 2 2 2 2 3 3 3 3 3 3 2 3 2 2 3 3 2 2 2 2 2 2 2 2 2 2 2 2 2 2
Wind_Direction
286 287 270 264 257 248 235 234 233 252 280 317 18 34 46 61 70 69 66 57 47 41 41 40 36 30 38 44 37 25 38 36 26 22 19 9 359 4 0 349 338 324 346 169
291 258 243 274 283 257 250 248 243 266 285 326 22 46 48 55 57 54 46 43 33 27 27 30 28 18 19 31 18 16 25 13 27 33 10 354 350 356 354 341 337 343 338 312
290 310 333 282 266 240 224 240 245 253 273 16 22 16 32 39 37 40 34 26 21 15 12 12 9 0 358 11 8 16 14 13 32 23 358 345 337 340 329 326 331 329 327 314
280 329 247 242 13 46 168 300 330 2 18 14 353 354 51 41 43 24 12 4 360 5 2 357 355 353 11 25 16 10 15 20 10 1 348 341 331 321 314 315 307 306 309 316
237 260 268 268 3 37 165 295 349 349 6 1 357 29 45 36 29 9 355 357 355 357 357 355 357 2 29 30 16 15 11 4 353 343 327 321 312 304 305 303 300 294 299 308
229 240 252 303 15 358 14 271 347 17 14 5 6 318 311 6 3 359 6 10 360 357 5 4 356 7 32 24 12 355 353 349 339 326 308 295 293 299 309 292 284 299 308 304
233 236 266 306 324 13 174 257 3 22 23 15 335 298 318 347 356 359 4 2 3 3 359 354 356 11 14 6 350 344 350 348 339 328 309 297 295 307 310 310 308 312 314 321
215 218 249 60 81 143 221 4 15 14 17 358 340 338 344 349 350 356 359 358 2 0 354 355 4 16 4 351 351 356 352 347 340 335 328 335 329 314 310 321 314 305 327 337
206 213 231 121 123 123 26 350 355 1 355 347 336 331 333 340 347 349 351 351 355 358 351 351 1 15 358 342 353 352 350 344 340 342 344 344 340 321 317 310 286 299 319 314
249 240 236 153 122 27 33 1 349 353 346 341 321 321 333 340 342 342 345 348 352 351 346 344 353 2 352 346 353 350 340 339 342 349 348 354 357 351 335 302 278 279 285 291
249 267 276 241 41 26 25 11 358 358 350 331 317 317 324 326 327 327 330 336 340 337 333 332 343 348 343 346 349 338 328 334 340 337 331 341 355 359 327 317 291 282 268 272
237 237 238 257 50 44 25 3 353 342 337 340 333 316 318 314 315 318 322 332 333 328 322 324 332 333 332 338 337 327 322 330 333 326 320 326 339 357 8 354 357 346 337 321
255 304 285 304 45 47 12 346 343 331 315 319 326 322 317 312 314 314 315 322 321 317 315 318 323 322 325 338 338 328 315 314 316 311 308 305 306 299 332 349 360 1 354 351
348 9 310 343 17 22 3 343 330 317 317 319 318 318 314 310 312 311 312 314 318 317 312 313 317 316 319 329 328 320 315 308 305 298 300 293 287 283 279 301 320 333 338 344
261 259 239 285 319 1 357 336 325 317 318 319 321 317 315 311 308 309 313 319 319 312 309 312 315 316 320 323 320 312 306 301 297 295 298 303 304 300 298 299 303 318 335 343
240 229 226 239 266 301 317 308 302 301 304 303 306 308 310 306 304 305 309 313 309 308 310 311 307 309 314 312 312 308 302 301 302 294 294 298 300 294 290 289 296 303 310 321
189 216 232 263 283 291 291 288 286 288 290 291 296 304 308 307 304 304 308 314 308 302 302 300 301 308 310 307 298 297 299 294 294 292 272 265 264 266 271 276 279 283 289 301
196 207 210 232 263 285 293 292 288 284 281 283 291 294 290 288 292 301 310 318 317 312 306 300 301 308 306 303 292 285 279 281 277 272 272 265 259 255 251 256 265 272 296 299
190 188 206 241 259 269 278 282 284 281 279 276 277 277 279 283 289 295 302 304 301 304 310 314 315 319 309 302 302 283 268 266 271 279 275 264 266 257 251 253 259 269 281 291
188 185 211 247 268 271 275 280 284 283 281 275 274 278 283 285 287 288 291 290 283 280 296 305 311 305 297 289 292 277 264 260 258 263 264 255 251 247 250 253 250 257 268 273
201 208 228 248 268 271 268 272 275 277 280 274 267 271 278 285 286 283 284 291 295 296 303 304 309 302 299 294 292 284 272 263 258 256 256 255 253 250 249 255 255 258 262 269
207 217 231 247 264 275 276 274 271 276 278 277 274 273 277 283 286 283 272 271 284 301 312 306 301 297 304 307 289 276 272 269 263 256 252 253 250 249 248 249 253 262 265 265
210 216 226 240 256 269 278 272 265 266 266 267 268 269 271 275 280 282 289 289 288 301 311 298 300 305 307 308 290 277 270 265 260 256 251 251 251 246 245 246 252 254 255 261
210 216 226 240 251 259 266 268 264 265 263 266 264 263 266 277 284 278 275 288 299 303 301 294 303 307 311 310 294 279 273 268 262 257 256 255 253 251 247 244 248 253 254 257
206 210 219 229 239 246 253 264 271 269 267 267 265 265 264 263 272 285 285 285 296 306 305 302 310 316 319 306 294 282 275 273 268 259 251 250 249 248 248 247 249 253 255 256
209 220 226 229 236 243 243 248 262 269 272 277 281 282 283 280 279 286 290 291 293 300 305 303 306 311 310 301 295 286 279 283 285 281 272 260 253 251 253 254 255 255 259 263
215 222 226 236 239 231 228 233 245 255 260 267 282 290 293 295 296 297 296 297 299 302 303 303 306 305 303 300 296 289 280 276 275 275 273 269 266 264 263 263 264 269 274 276
Height
1480 1476 1476 1477 1477 1476 1476 1475 1477 1473 1473 1474 1474 1474 1475 1475 1475 1476 1477 1477 1476 1476 1476 1476 1475 1475 1475 1476 1476 1477 1477 1478 1478 1478 1479 1479 1479 1479 1480 1480 1480 1481 1481 1482
1480 1475 1474 1475 1476 1474 1475 1474 1474 1474 1475 1474 1474 1475 1475 1476 1476 1476 1477 1476 1476 1476 1475 1475 1474 1474 1474 1474 1475 1475 1476 1476 1476 1476 1476 1477 1477 1477 1477 1477 1478 1478 1478 1479
1482 1475 1474 1480 1475 1474 1475 1474 1474 1475 1476 1474 1475 1475 1476 1476 1476 1476 1476 1476 1475 1475 1474 1474 1473 1473 1473 1473 1473 1474 1474 1474 1474 1474 1475 1475 1475 1475 1475 1475 1475 1475 1476 1476
1484 1482 1487 1479 1472 1471 1473 1475 1475 1475 1475 1475 1476 1476 1476 1477 1477 1476 1476 1475 1474 1474 1473 1473 1472 1472 1472 1472 1472 1472 1472 1472 1472 1473 1473 1472 1472 1472 1472 1472 1472 1473 1473 1473
1487 1487 1480 1474 1473 1473 1475 1477 1476 1476 1476 1475 1475 1475 1476 1476 1476 1476 1475 1474 1473 1473 1472 1471 1471 1470 1470 1470 1470 1470 1470 1470 1470 1470 1470 1470 1470 1470 1470 1470 1470 1470 1471 1471
1485 1486 1483 1478 1475 1473 1476 1479 1476 1475 1476 1476 1475 1477 1477 1476 1475 1474 1473 1472 1472 1471 1470 1469 1469 1469 1468 1468 1468 1468 1468 1468 1468 1468 1468 1468 1468 1468 1468 1468 1468 1468 1468 1468
1486 1487 1481 1479 1475 1474 1482 1482 1477 1476 1476 1476 1477 1478 1477 1475 1474 1473 1472 1471 1470 1469 1469 1468 1467 1467 1467 1466 1466 1466 1466 1466 1466 1466 1465 1465 1465 1465 1465 1465 1465 1465 1465 1466
1485 1486 1485 1477 1476 1479 1480 1478 1477 1476 1476 1476 1476 1475 1475 1474 1473 1472 1470 1470 1469 1468 1467 1467 1466 1466 1465 1464 1464 1464 1464 1463 1463 1463 1463 1463 1463 1463 1463 1463 1463 1463 1463 1463
1483 1483 1478 1476 1476 1477 1477 1477 1476 1476 1475 1475 1474 1474 1473 1472 1471 1470 1469 1468 1467 1466 1465 1465 1465 1464 1463 1463 1462 1462 1461 1461 1461 1460 1460 1460 1460 1460 1460 1460 1460 1460 1460 1460
1478 1477 1476 1476 1476 1476 1476 1476 1475 1475 1474 1474 1473 1472 1471 1470 1469 1469 1468 1467 1466 1465 1464 1463 1463 1462 1462 1461 1460 1460 1459 1458 1458 1458 1458 1458 1458 1458 1458 1458 1458 1458 1458 1458
1476 1475 1475 1475 1475 1475 1475 1474 1474 1473 1473 1472 1471 1470 1470 1469 1468 1467 1466 1465 1464 1463 1462 1461 1460 1460 1460 1459 1458 1457 1457 1456 1456 1455 1455 1455 1455 1456 1456 1456 1456 1456 1456 1456
1475 1474 1474 1474 1473 1473 1473 1473 1472 1471 1471 1470 1470 1469 1468 1467 1466 1465 1464 1463 1462 1461 1460 1459 1458 1457 1457 1457 1456 1455 1454 1454 1453 1453 1453 1453 1453 1453 1453 1454 1454 1454 1454 1454
1471 1471 1471 1471 1471 1471 1471 1471 1470 1470 1469 1468 1468 1467 1466 1465 1464 1463 1462 1461 1460 1459 1458 1457 1456 1455 1455 1454 1454 1453 1452 1452 1452 1452 1452 1451 1451 1451 1450 1451 1451 1451 1451 1451
1469 1469 1469 1469 1469 1469 1469 1468 1468 1467 1467 1466 1465 1465 1464 1463 1462 1461 1460 1459 1458 1457 1456 1455 1454 1453 1452 1451 1451 1450 1450 1450 1450 1450 1449 1449 1449 1449 1448 1448 1448 1448 1448 1448
1466 1466 1467 1467 1467 1467 1467 1466 1466 1465 1464 1463 1463 1462 1461 1460 1459 1458 1458 1457 1456 1455 1454 1452 1451 1450 1450 1449 1448 1448 1447 1447 1447 1447 1447 1447 1447 1446 1446 1446 1446 1446 1446 1446
1464 1464 1465 1465 1465 1465 1465 1464 1463 1462 1462 1461 1460 1459 1459 1458 1457 1456 1455 1454 1453 1452 1451 1450 1449 1448 1447 1446 1445 1445 1445 1444 1444 1444 1444 1444 1444 1444 1444 1444 1444 1443 1443 1443
1461 1462 1462 1462 1463 1462 1462 1462 1461 1460 1459 1458 1457 1456 1456 1455 1454 1453 1452 1451 1450 1449 1448 1447 1446 1445 1444 1443 1443 1442 1442 1441 1442 1441 1441 1441 1441 1441 1441 1441 1441 1441 1441 1441
1459 1459 1460 1460 1460 1460 1459 1459 1458 1458 1457 1456 1455 1454 1453 1452 1451 1450 1449 1448 1447 1446 1446 1445 1443 1442 1441 1441 1440 1439 1439 1439 1438 1438 1438 1438 1438 1439 1439 1439 1439 1439 1439 1439
1456 1457 1457 1457 1457 1457 1457 1456 1455 1454 1453 1452 1451 1451 1450 1449 1448 1447 1446 1445 1444 1443 1442 1442 1440 1439 1438 1437 1437 1436 1436 1436 1435 1435 1435 1435 1435 1436 1436 1436 1436 1436 1436 1436
1453 1454 1454 1454 1454 1454 1453 1453 1452 1451 1450 1449 1448 1447 1446 1446 1445 1444 1443 1442 1441 1440 1439 1438 1437 1436 1435 1434 1434 1433 1433 1432 1432 1432 1432 1432 1432 1432 1433 1433 1433 1433 1433 1434
1450 1451 1451 1451 1451 1450 1450 1449 1448 1447 1446 1446 1445 1444 1443 1442 1442 1441 1439 1438 1438 1437 1436 1435 1434 1433 1432 1431 1431 1430 1430 1429 1429 1429 1429 1429 1429 1429 1430 1430 1430 1430 1431 1431
1447 1447 1447 1447 1447 1447 1446 1445 1445 1444 1443 1442 1441 1440 1439 1438 1438 1437 1436 1436 1434 1434 1432 1431 1430 1430 1429 1428 1428 1427 1426 1426 1426 1426 1426 1426 1426 1426 1427 1427 1427 1428 1428 1428
1444 1444 1444 1444 1444 1443 1442 1442 1441 1440 1439 1438 1438 1437 1436 1435 1434 1433 1432 1432 1431 1430 1429 1428 1427 1427 1426 1425 1424 1424 1423 1423 1423 1423 1423 1423 1423 1423 1424 1424 1424 1425 1425 1425
1441 1441 1441 1441 1440 1439 1439 1438 1438 1437 1436 1435 1434 1434 1433 1432 1431 1430 1429 1428 1428 1427 1426 1425 1424 1424 1423 1422 1421 1421 1420 1420 1420 1420 1420 1420 1420 1420 1421 1421 1421 1422 1422 1423
1437 1437 1437 1437 1436 1436 1435 1435 1434 1433 1433 1432 1431 1430 1430 1429 1428 1427 1426 1425 1425 1424 1423 1422 1421 1421 1420 1419 1418 1418 1417 1417 1417 1417 1417 1417 1417 1417 1418 1418 1418 1419 1419 1420
1434 1434 1433 1433 1433 1433 1432 1432 1431 1430 1429 1428 1428 1427 1427 1426 1425 1424 1423 1422 1421 1421 1420 1419 1418 1418 1417 1416 1415 1415 1414 1414 1414 1414 1414 1414 1414 1414 1414 1415 1415 1416 1416 1417
1430 1430 1430 1430 1429 1429 1429 1428 1428 1427 1427 1426 1425 1424 1424 1423 1422 1421 1420 1419 1418 1418 1417 1416 1415 1415 1414 1413 1412 1412 1411 1411 1411 1411 1411 1411 1411 1411 1411 1412 1412 1413 1413 1413